Wind_Speed
13 11 8 7 6 4 3 3 4 4 4 4 3 2 1 2 5 7 9 9 9 9 9 10 11 11 11 11 12 12 12 11 11 10 10 10 10 10 9 9 9 8 8 7 6 5 3 4 5 7 7 7 8 9 10 11 10 9 10 10 10 10 9
13 11 8 7 5 4 2 3 3 4 4 3 2 2 2 2 3 5 7 9 10 10 10 10 10 10 9 10 11 12 12 12 11 11 11 11 11 11 10 9 9 8 7 7 6 5 4 4 6 6 7 8 8 9 10 10 9 8 9 9 9 8 9
12 10 8 6 4 3 2 2 4 5 6 5 5 4 3 3 3 3 4 7 10 11 12 11 10 10 9 9 11 13 13 12 12 12 11 12 12 10 9 9 8 7 6 6 6 6 5 5 6 6 7 8 8 8 9 9 8 8 8 8 7 8 8
10 9 7 5 3 2 1 4 6 6 6 6 7 7 6 5 4 3 4 5 8 11 13 13 12 11 10 10 11 12 13 13 12 11 11 11 11 10 9 8 7 6 6 6 6 7 7 6 6 6 7 7 7 8 8 8 8 8 7 7 7 7 7
10 9 7 4 2 1 3 6 7 8 8 7 8 8 8 8 6 5 4 5 7 10 13 14 14 12 11 11 11 12 12 12 11 11 11 11 10 10 8 7 6 5 5 6 6 7 7 6 5 6 7 6 6 7 7 7 7 7 7 7 7 7 6
11 9 7 5 3 3 6 8 9 9 8 8 8 8 8 9 8 6 6 6 6 8 10 13 14 14 13 12 11 11 11 11 11 11 11 11 11 10 9 8 7 5 6 6 6 7 6 4 4 5 5 5 5 6 6 7 7 6 6 6 6 5 4
11 9 7 5 3 4 7 9 9 9 9 8 7 7 7 8 8 7 7 7 7 7 8 10 12 14 14 13 12 11 11 10 11 11 11 11 11 11 10 9 7 6 6 6 6 6 5 4 4 4 4 4 5 6 6 5 5 5 5 5 5 4 2
11 9 8 6 4 5 8 10 11 10 10 9 7 6 6 7 7 7 7 8 7 7 8 9 10 13 14 14 13 12 11 11 11 11 11 11 11 11 10 9 8 7 7 6 6 6 5 5 4 4 4 5 5 5 4 3 2 3 4 4 3 2 0
11 10 8 7 6 7 9 11 12 12 11 10 8 7 7 7 6 6 7 8 8 8 8 8 9 11 13 14 14 13 12 12 12 12 12 12 13 12 11 9 8 8 8 8 8 6 6 5 5 4 4 4 4 4 3 1 0 1 3 3 2 1 1
10 10 9 9 8 9 11 13 13 14 13 11 9 6 7 7 6 5 7 8 9 8 8 9 10 11 12 13 13 13 12 12 11 11 11 11 11 10 9 9 9 9 10 9 8 7 6 5 3 3 3 3 3 3 2 1 1 1 2 3 3 3 3
10 11 11 11 10 11 13 14 14 14 14 12 9 6 7 7 6 6 7 8 9 9 9 9 10 10 12 12 12 11 11 10 9 9 9 9 10 9 9 9 10 10 10 9 8 6 5 4 2 2 2 2 2 1 0 1 2 2 3 3 4 4 3
12 12 12 11 11 12 14 14 14 15 14 12 9 6 6 7 7 7 7 8 9 9 9 9 10 10 11 11 11 10 9 9 9 9 9 9 10 10 10 11 11 10 9 8 7 5 4 3 2 2 2 2 1 1 1 2 3 2 2 2 2 3 2
14 12 12 11 11 13 14 14 14 15 14 12 9 7 7 8 8 7 7 8 9 10 10 10 10 10 11 11 11 10 10 9 9 9 9 9 10 10 10 10 10 9 8 6 5 3 2 1 1 3 5 4 2 1 1 2 2 2 2 1 1 0 1
15 13 12 12 12 14 14 14 14 15 14 11 8 7 7 8 9 7 7 8 10 10 10 11 11 11 11 11 11 10 10 9 9 9 10 10 10 9 10 9 9 8 7 5 4 3 3 4 5 6 7 5 3 2 2 2 2 3 3 4 5 5 5
17 15 14 13 14 14 14 14 14 14 13 10 7 7 9 10 9 7 7 9 9 10 10 11 11 11 11 11 10 10 10 10 10 10 10 10 10 10 9 9 8 7 6 6 6 6 7 7 8 8 7 6 5 3 1 1 2 3 4 5 6 6 7
19 18 17 16 15 15 15 14 13 13 12 9 7 6 9 10 8 7 7 8 9 10 11 11 10 11 11 11 11 11 11 11 11 11 11 11 11 11 10 10 10 9 8 8 9 9 9 8 8 7 7 6 5 3 2 1 1 2 4 5 5 6 7
22 21 19 18 16 15 15 14 13 13 11 9 6 6 9 11 9 7 8 9 10 11 11 11 11 11 11 11 11 11 12 11 11 12 12 12 12 12 12 12 12 11 10 10 10 9 8 7 6 6 5 4 3 2 1 0 1 2 4 5 6 7 8
24 23 21 19 18 16 15 14 13 12 11 8 6 7 10 11 9 8 9 10 11 11 12 12 13 12 11 11 11 11 11 11 11 11 11 12 13 13 12 12 12 11 10 9 8 7 5 4 3 2 2 1 1 1 1 2 3 4 5 6 7 8 9
26 24 22 19 17 16 15 14 13 12 10 8 7 8 11 12 10 10 11 11 12 12 13 13 13 12 12 11 11 11 10 10 10 10 11 11 12 12 11 11 9 9 8 7 5 4 3 2 1 1 2 3 3 3 3 4 5 6 6 7 8 9 10
29 26 23 20 18 17 15 13 12 11 10 9 7 9 13 13 11 11 12 12 13 13 13 13 12 12 12 11 11 11 11 11 10 10 11 11 11 11 10 9 8 6 6 5 5 4 3 3 3 4 5 6 5 5 4 5 6 7 8 9 9 10 11
31 28 25 23 20 17 15 13 11 11 10 10 8 9 13 14 12 12 13 13 13 13 13 13 12 12 11 11 10 11 11 11 11 11 11 10 9 9 8 8 7 7 6 6 6 6 6 6 6 7 7 8 8 8 8 9 9 9 10 11 11 11 13
26 26 25 23 18 15 14 13 12 12 11 10 9 10 13 15 14 14 14 14 13 13 13 12 12 12 11 11 11 11 12 12 12 11 10 10 9 9 9 8 8 8 8 8 8 8 9 9 9 10 10 11 11 12 12 12 12 12 13 13 14 15 16
23 23 23 21 18 16 15 14 13 13 12 11 10 10 13 16 16 16 15 15 14 13 13 12 12 12 12 12 12 12 12 13 13 12 12 11 11 11 11 10 10 10 10 10 11 11 12 12 13 14 14 14 15 16 16 17 17 17 17 17 17 18 19
22 23 22 21 19 18 16 15 14 14 13 12 11 11 13 15 17 17 16 15 14 13 13 13 13 13 13 13 13 13 13 13 14 14 14 13 13 13 13 13 13 14 14 14 15 15 15 16 17 17 18 19 19 20 21 21 21 22 22 22 21 22 22
22 22 22 21 20 19 16 15 15 14 13 12 11 11 12 14 16 17 17 16 16 15 15 15 15 15 15 15 15 15 15 15 15 16 16 16 16 16 16 16 17 18 18 18 19 19 19 19 20 21 21 22 23 24 25 25 25 25 26 26 25 25 26
23 22 21 21 21 20 18 17 17 16 15 14 12 12 12 13 14 15 16 17 17 17 17 17 17 17 17 17 18 18 18 18 19 19 19 19 20 20 20 21 21 21 21 22 23 23 23 23 24 24 25 25 26 27 27 28 29 29 29 29 29 28 28
21 21 21 22 22 21 20 19 18 18 17 16 15 14 13 14 13 14 15 16 17 18 18 18 17 18 18 18 19 19 20 21 22 22 23 23 24 24 25 25 25 25 25 26 26 27 27 27 27 28 28 28 29 29 29 30 30 31 30 30 30 30 30
19 20 21 22 23 23 22 21 20 19 19 18 18 17 16 15 14 14 14 15 16 17 18 18 18 18 18 18 19 19 20 21 22 23 23 24 25 26 27 28 29 29 29 29 29 29 29 29 30 30 30 30 30 30 30 30 30 30 31 31 31 31 31
20 21 22 23 24 23 23 23 22 22 21 20 20 19 19 18 17 17 17 17 18 18 19 20 20 20 20 20 21 21 21 22 22 23 23 24 25 26 28 29 30 31 31 31 31 31 32 32 32 32 32 31 31 31 30 30 30 31 32 33 33 32 32
19 20 22 24 25 25 25 26 25 24 24 24 24 23 22 21 21 21 22 22 22 23 23 24 24 24 24 24 24 24 24 24 24 24 25 26 27 28 30 31 32 33 33 33 33 33 34 35 35 35 34 34 34 33 32 31 32 33 33 34 35 35 35
18 19 22 24 25 26 27 28 28 28 28 27 26 26 25 25 25 25 26 26 26 26 27 27 28 28 28 27 27 27 27 26 26 27 27 27 28 29 30 32 33 34 34 34 35 36 37 38 38 38 37 36 37 37 36 34 34 35 36 36 36 37 38
18 20 21 22 22 22 22 23 27 30 30 30 29 28 27 28 27 27 27 26 25 26 26 27 28 29 29 28 28 28 28 28 28 29 29 29 29 30 31 31 31 32 33 33 34 36 37 38 39 39 39 39 40 41 39 37 36 37 38 38 39 40 40
19 20 20 20 21 21 20 21 23 24 24 26 28 28 27 27 27 27 27 26 25 25 26 27 28 28 29 29 29 29 29 30 31 31 31 31 32 32 32 32 32 33 34 35 36 37 38 39 40 41 41 42 43 42 40 39 39 39 40 41 42 42 42
18 19 20 21 22 23 23 24 26 25 22 21 23 24 25 26 27 27 27 27 26 26 27 27 28 29 30 30 31 31 32 33 34 35 35 35 35 36 36 37 38 39 40 41 41 41 41 41 42 43 44 44 44 43 42 41 41 41 42 43 43 44 43
18 19 20 21 23 24 24 25 26 27 26 25 24 25 26 28 28 28 28 29 29 29 29 30 31 32 33 34 35 36 37 38 39 41 41 42 42 43 43 44 44 44 44 45 45 45 45 44 45 46 46 45 44 43 43 43 43 44 44 44 43 43 43
21 21 22 23 24 24 25 25 26 26 26 27 27 28 29 30 30 31 31 32 33 33 33 34 35 35 37 38 40 42 44 45 46 47 48 48 48 48 48 48 47 46 46 46 47 48 48 48 49 48 47 46 45 44 44 44 44 45 44 43 43 43 42
22 23 23 24 25 26 26 27 28 28 28 28 29 30 31 32 33 34 34 35 35 36 37 39 40 41 43 45 46 47 48 50 50 51 52 52 52 51 51 52 51 51 50 50 50 50 50 51 51 50 49 48 47 46 45 44 43 44 44 43 42 42 41
Wind_Direction
147 147 147 139 132 126 105 72 54 49 50 49 40 18 336 264 246 239 234 229 226 228 229 227 227 229 231 229 225 221 218 223 227 225 227 232 232 229 224 226 233 238 241 242 246 249 259 286 293 296 300 300 296 295 298 300 302 310 317 318 319 321 323
151 151 149 146 141 127 93 46 16 5 359 353 348 341 339 319 280 256 243 232 226 223 223 224 224 223 226 228 225 221 222 227 229 226 231 237 236 232 223 225 236 245 246 244 245 252 262 279 292 298 299 296 291 290 290 292 298 311 317 318 322 326 329
156 154 154 156 144 118 78 16 353 343 333 318 304 289 278 287 297 288 261 239 228 223 219 219 219 218 218 222 224 223 224 229 230 229 233 241 245 241 233 232 236 239 239 232 233 248 262 279 294 295 291 288 284 281 281 287 301 312 314 319 326 332 334
161 160 160 159 145 113 5 340 336 333 328 315 301 283 265 262 270 283 281 252 230 223 220 217 216 215 215 217 220 221 223 227 230 231 235 243 250 250 243 237 230 222 224 226 233 252 268 284 294 289 281 278 277 280 283 291 302 309 313 322 331 335 338
168 170 170 168 172 288 322 323 323 321 320 316 307 287 264 253 254 262 273 263 237 223 220 218 216 214 213 215 217 217 219 222 225 229 232 237 243 244 241 235 225 218 224 233 242 253 267 282 288 279 274 275 279 285 292 300 305 311 318 325 329 332 335
177 178 179 186 218 293 316 318 318 315 314 314 310 295 267 249 247 254 262 262 245 228 219 217 218 217 214 212 213 212 212 216 221 228 233 236 237 237 238 237 229 221 226 235 242 246 257 272 275 270 271 277 285 289 297 306 311 316 319 319 318 319 328
183 184 190 205 245 299 318 320 318 313 310 310 304 292 270 252 248 251 256 256 246 231 218 213 215 216 215 211 208 208 211 218 226 230 232 233 232 230 229 229 221 213 219 224 228 232 238 247 248 252 261 272 282 286 294 306 316 319 313 307 302 301 316
188 193 203 223 261 301 318 319 316 311 307 307 295 268 253 253 253 253 254 254 247 232 217 212 211 212 212 209 208 211 216 221 223 224 223 222 224 225 225 223 216 207 203 201 209 217 217 225 231 238 257 273 279 283 291 308 323 315 298 288 279 274 288
198 203 216 239 268 300 315 314 311 308 305 307 298 260 235 237 248 255 255 254 247 232 219 211 206 206 206 205 208 212 216 218 219 222 225 226 227 226 224 222 211 194 187 188 195 202 204 213 223 236 261 273 276 283 291 303 62 270 267 252 210 150 111
210 219 235 254 274 296 306 308 308 306 304 308 305 272 238 230 236 247 249 247 242 232 220 207 198 197 198 199 203 208 212 218 224 226 226 224 221 215 210 208 195 181 177 179 182 190 198 204 215 238 258 269 281 287 280 211 135 197 233 208 162 133 113
227 238 251 262 275 292 299 302 303 301 301 304 301 276 242 229 230 241 242 236 230 226 219 206 195 192 193 195 200 206 214 223 225 220 212 203 197 191 189 186 177 170 168 169 174 185 189 187 208 237 235 254 282 287 219 149 161 190 192 171 148 133 124
231 242 252 261 275 290 294 295 295 293 294 295 290 272 241 224 225 239 240 230 223 218 212 204 196 192 193 196 198 204 212 216 213 205 195 187 182 179 176 169 163 162 166 168 172 178 179 188 228 205 159 147 154 143 126 163 192 212 190 162 142 130 124
228 238 249 260 275 286 289 288 286 286 288 288 279 261 238 220 220 232 234 226 221 215 206 197 191 189 189 192 195 199 202 202 200 192 181 175 174 172 167 161 157 158 164 168 170 172 171 175 159 129 130 136 144 153 181 198 219 260 277 280 293 320 325
226 233 243 255 271 280 281 279 278 279 282 281 269 246 226 216 218 225 227 224 219 212 203 191 183 180 180 184 188 191 192 187 180 172 163 159 159 157 154 151 150 151 156 160 152 132 111 104 105 111 118 128 139 155 194 218 240 263 286 305 313 317 319
225 232 238 249 262 269 272 271 270 274 277 276 267 238 214 209 212 217 221 220 212 201 197 189 178 172 173 176 178 179 178 171 162 156 153 150 147 145 145 144 144 145 147 143 129 119 113 108 107 107 107 111 114 115 130 198 248 261 277 298 311 313 312
224 231 236 243 253 259 263 263 265 270 272 272 270 239 210 203 205 210 213 209 199 190 187 182 173 170 171 172 171 169 168 163 156 152 150 146 141 138 138 138 138 139 138 135 128 123 119 114 111 109 106 105 103 96 90 90 308 291 294 305 313 310 308
226 231 234 238 244 249 252 252 257 264 265 266 264 233 210 203 202 205 202 196 190 183 178 173 170 170 171 171 168 165 163 160 155 151 146 140 135 133 133 134 135 134 134 133 130 125 121 118 116 114 114 113 115 114 101 321 318 314 312 315 312 307 308
225 229 233 234 236 240 243 243 251 258 257 258 252 221 208 205 203 200 194 188 184 180 175 171 168 169 171 171 169 166 163 158 152 146 141 136 132 129 130 132 132 132 133 133 132 129 126 122 115 103 98 109 151 202 270 297 307 309 309 308 305 304 307
222 226 230 230 230 234 237 238 245 252 251 251 242 213 204 203 201 195 188 183 181 178 175 173 170 172 175 173 169 167 162 154 148 145 141 137 135 132 133 133 133 134 137 138 139 142 141 139 145 292 289 280 271 269 283 299 307 309 307 302 301 302 302
217 221 223 220 220 224 227 231 241 247 249 249 239 212 201 200 198 192 187 183 183 181 179 178 176 176 179 176 170 169 163 154 150 149 148 147 147 147 146 146 150 155 160 166 173 185 200 215 235 254 264 270 270 271 283 298 306 307 304 298 295 295 295
217 218 216 210 209 214 218 225 236 242 243 243 237 214 202 199 195 192 190 186 186 187 186 184 182 182 183 180 175 174 171 166 164 164 164 163 164 167 168 171 181 189 195 201 209 218 226 236 246 254 263 267 265 268 277 288 295 297 296 292 288 287 289
223 222 218 209 207 215 221 225 231 236 237 233 229 216 205 200 196 194 194 191 188 191 192 192 192 191 190 189 187 187 184 182 184 186 186 185 186 189 193 197 204 211 216 222 230 236 244 252 259 263 265 266 266 270 276 282 286 288 286 285 283 283 284
213 214 212 208 210 218 223 225 227 232 233 224 218 213 206 203 200 197 198 198 194 194 197 201 203 204 204 204 203 202 200 199 200 204 206 207 207 209 212 215 220 226 231 237 242 249 255 260 266 269 271 272 273 274 277 279 281 282 282 281 281 281 282
196 199 200 203 211 217 219 223 225 229 233 228 219 213 208 206 205 203 203 203 201 202 204 208 212 215 216 216 216 217 216 215 215 216 219 221 222 224 227 230 235 239 243 247 250 255 259 263 269 273 277 279 280 281 282 282 282 283 283 283 281 280 281
192 196 198 202 211 213 215 220 219 221 229 233 228 219 213 211 210 209 209 210 210 210 210 213 216 219 220 222 223 225 227 227 228 229 230 231 233 235 238 241 246 250 253 257 260 263 266 269 273 276 278 280 280 282 283 283 283 284 284 284 283 282 282
197 198 201 207 211 211 212 216 215 215 221 228 229 224 218 216 214 214 214 215 218 219 219 221 223 225 227 229 230 231 233 234 235 236 237 238 239 241 244 246 249 254 259 262 265 267 269 271 272 274 275 275 276 278 279 281 282 283 283 283 283 283 284
203 201 205 211 212 212 213 215 215 215 218 221 225 225 223 221 220 220 219 219 223 227 229 231 232 235 238 240 242 242 242 242 242 242 243 244 245 247 249 251 252 255 258 261 263 265 266 268 269 270 271 272 274 276 278 281 282 283 284 284 283 284 284
209 207 210 214 214 213 216 218 219 219 220 221 222 224 226 227 227 228 228 228 229 231 234 235 237 240 243 246 249 250 252 253 253 253 253 254 254 254 255 256 256 257 258 260 261 262 263 264 265 266 268 271 273 275 278 280 282 282 283 283 283 284 283
217 213 214 217 217 216 218 222 223 222 224 226 227 227 228 229 230 231 233 233 233 234 236 237 237 239 242 245 247 249 252 255 257 259 261 262 263 263 262 261 261 261 261 262 263 264 265 266 267 268 270 272 274 276 277 278 280 281 281 282 282 282 282
224 219 218 222 222 219 221 225 226 225 226 229 231 232 231 230 230 231 232 232 233 234 235 236 237 238 239 241 243 245 248 250 253 255 258 260 262 264 265 265 265 265 265 265 266 267 267 269 270 272 273 274 275 275 275 276 278 280 280 280 280 279 280
230 227 227 231 231 228 227 225 225 227 228 230 232 231 230 231 232 233 233 233 234 236 238 239 239 240 241 242 243 244 246 249 252 254 255 257 258 260 261 263 264 265 266 266 266 266 266 267 269 271 272 273 274 274 275 277 279 280 279 279 278 277 278
233 232 233 237 241 245 244 237 233 230 227 228 231 230 231 234 236 238 239 239 240 241 243 246 247 247 248 248 248 249 251 253 255 257 258 259 260 261 262 262 262 264 265 265 265 266 266 267 268 269 271 272 272 273 274 276 277 276 276 276 276 277 277
239 241 244 246 250 256 261 260 258 249 234 227 227 228 231 237 241 243 245 245 246 247 249 252 254 255 255 256 256 256 257 258 259 260 261 262 262 263 264 265 266 267 267 266 266 266 267 268 269 270 271 272 274 275 275 274 273 273 274 274 275 276 277
249 251 255 257 257 258 260 261 265 266 260 248 239 234 235 239 242 244 245 247 248 250 251 252 254 256 259 260 261 261 262 262 263 263 263 264 265 265 266 268 270 271 270 270 269 269 269 270 271 272 273 274 275 277 276 274 273 271 272 273 275 276 277
263 262 262 261 261 263 264 264 265 267 267 263 256 248 243 242 242 243 245 247 248 249 251 252 253 256 259 261 263 265 266 267 268 269 269 269 270 271 271 272 272 271 270 270 270 270 271 273 274 274 275 276 276 277 277 276 274 273 273 273 274 274 274
262 263 263 263 264 266 267 268 268 268 267 265 261 257 253 251 250 250 250 251 252 253 256 258 259 261 264 267 270 272 273 274 275 275 275 275 274 274 273 273 272 271 270 270 271 272 273 274 275 276 276 277 277 276 276 275 275 275 275 273 273 273 273
260 260 261 262 264 266 267 267 268 268 269 267 265 264 264 263 262 261 261 260 261 262 264 266 267 269 270 272 272 273 274 274 275 275 276 276 276 276 275 275 274 273 272 272 272 272 273 274 275 276 277 277 276 275 274 273 274 275 274 272 271 271 272
Height
3140 3142 3143 3144 3144 3145 3145 3146 3146 3147 3147 3148 3148 3148 3148 3148 3149 3149 3149 3150 3151 3152 3152 3153 3155 3156 3157 3157 3158 3159 3160 3160 3161 3163 3164 3165 3166 3167 3168 3169 3169 3170 3170 3171 3171 3172 3173 3174 3173 3173 3173 3173 3173 3173 3173 3173 3174 3174 3174 3173 3173 3173 3173
3141 3142 3143 3144 3145 3145 3145 3146 3146 3146 3147 3147 3148 3148 3148 3148 3148 3148 3149 3149 3150 3151 3151 3152 3153 3155 3156 3157 3157 3158 3159 3160 3161 3162 3163 3164 3164 3165 3167 3168 3169 3169 3170 3170 3171 3171 3173 3173 3173 3173 3172 3173 3173 3173 3173 3173 3173 3173 3173 3173 3172 3172 3172
3141 3142 3143 3144 3144 3145 3145 3146 3146 3146 3147 3147 3147 3147 3147 3147 3147 3148 3148 3148 3149 3150 3150 3151 3152 3153 3154 3156 3156 3157 3158 3159 3160 3161 3162 3163 3163 3165 3167 3168 3168 3169 3169 3170 3170 3171 3172 3172 3172 3172 3172 3172 3172 3173 3173 3172 3172 3172 3172 3172 3172 3172 3171
3142 3143 3143 3144 3144 3145 3145 3145 3146 3146 3146 3146 3146 3146 3146 3147 3147 3147 3147 3148 3148 3149 3149 3150 3151 3152 3153 3154 3155 3157 3158 3159 3160 3161 3161 3162 3163 3164 3165 3167 3168 3168 3168 3169 3170 3170 3171 3172 3172 3172 3172 3172 3172 3172 3172 3172 3172 3172 3171 3171 3171 3171 3171
3141 3142 3143 3144 3144 3145 3145 3145 3145 3145 3145 3145 3145 3145 3146 3146 3146 3147 3147 3147 3147 3148 3149 3149 3150 3151 3152 3154 3155 3156 3157 3158 3159 3160 3161 3161 3162 3163 3164 3165 3167 3167 3168 3169 3169 3170 3170 3171 3171 3171 3171 3171 3171 3171 3171 3171 3171 3171 3171 3170 3170 3170 3170
3141 3142 3142 3143 3144 3144 3145 3145 3145 3145 3144 3144 3144 3144 3144 3145 3145 3146 3146 3146 3147 3147 3148 3149 3150 3151 3152 3153 3154 3155 3156 3157 3158 3159 3159 3160 3161 3162 3163 3164 3166 3166 3167 3168 3168 3168 3169 3170 3170 3170 3170 3170 3170 3170 3170 3170 3170 3170 3170 3170 3170 3170 3170
3140 3141 3142 3143 3143 3144 3144 3144 3144 3144 3144 3144 3143 3143 3143 3144 3144 3145 3145 3145 3146 3146 3147 3148 3149 3150 3151 3152 3154 3155 3156 3157 3157 3158 3158 3159 3160 3161 3162 3163 3164 3165 3166 3167 3167 3168 3168 3169 3169 3169 3169 3170 3170 3170 3170 3170 3170 3170 3170 3170 3170 3170 3170
3140 3141 3141 3142 3143 3143 3143 3143 3143 3143 3143 3143 3142 3142 3142 3143 3143 3144 3144 3144 3145 3145 3146 3146 3147 3148 3150 3151 3152 3153 3154 3155 3156 3157 3157 3158 3158 3159 3160 3162 3163 3165 3165 3166 3166 3167 3168 3168 3168 3169 3169 3169 3169 3169 3169 3169 3169 3170 3170 3170 3171 3171 3171
3140 3140 3141 3142 3142 3142 3142 3142 3142 3142 3142 3142 3141 3141 3142 3142 3143 3143 3143 3143 3144 3144 3145 3145 3146 3147 3148 3149 3151 3152 3153 3154 3155 3155 3156 3156 3157 3158 3159 3160 3162 3163 3164 3165 3166 3166 3167 3168 3168 3168 3168 3168 3168 3168 3168 3169 3169 3170 3170 3171 3171 3171 3171
3140 3141 3141 3142 3142 3142 3142 3142 3141 3141 3141 3140 3140 3140 3141 3142 3142 3143 3143 3143 3143 3144 3144 3144 3145 3146 3147 3148 3150 3151 3152 3153 3153 3154 3155 3155 3156 3157 3158 3159 3161 3162 3163 3164 3165 3166 3167 3168 3168 3168 3168 3168 3168 3168 3168 3168 3169 3170 3170 3171 3171 3171 3171
3140 3141 3141 3141 3142 3142 3142 3141 3141 3140 3140 3140 3139 3139 3140 3140 3141 3142 3142 3142 3142 3143 3144 3144 3145 3146 3147 3148 3149 3150 3151 3152 3152 3153 3154 3154 3155 3156 3157 3159 3160 3161 3162 3163 3165 3166 3166 3167 3167 3167 3167 3167 3167 3167 3168 3168 3168 3169 3170 3171 3171 3171 3171
3139 3140 3140 3140 3140 3141 3141 3141 3140 3140 3139 3139 3139 3139 3139 3140 3140 3141 3141 3141 3142 3142 3143 3144 3145 3146 3147 3148 3149 3150 3150 3151 3152 3153 3154 3154 3155 3156 3157 3158 3159 3160 3162 3163 3164 3165 3166 3166 3166 3167 3166 3167 3167 3168 3168 3168 3169 3169 3170 3170 3171 3171 3171
3138 3139 3139 3139 3139 3139 3139 3140 3139 3139 3139 3139 3139 3139 3139 3139 3140 3140 3140 3141 3141 3142 3143 3144 3145 3146 3147 3148 3149 3149 3150 3151 3152 3153 3153 3154 3155 3156 3157 3158 3159 3160 3161 3162 3163 3164 3165 3165 3166 3166 3166 3167 3168 3168 3168 3169 3169 3170 3170 3170 3170 3171 3171
3137 3137 3138 3138 3138 3138 3138 3139 3138 3138 3138 3138 3138 3138 3139 3139 3140 3140 3140 3141 3141 3142 3143 3143 3144 3146 3147 3147 3148 3149 3150 3150 3151 3152 3153 3154 3155 3156 3157 3157 3159 3160 3161 3162 3163 3163 3164 3165 3166 3166 3167 3167 3168 3168 3169 3169 3170 3170 3170 3170 3170 3171 3171
3135 3136 3136 3137 3137 3137 3137 3137 3137 3137 3137 3137 3137 3137 3138 3138 3139 3139 3140 3140 3141 3142 3142 3143 3144 3145 3146 3147 3148 3149 3149 3150 3151 3152 3153 3154 3154 3155 3156 3157 3158 3159 3160 3161 3162 3163 3164 3165 3166 3166 3167 3167 3168 3168 3169 3169 3170 3170 3171 3171 3170 3170 3170
3133 3134 3135 3135 3136 3136 3136 3136 3136 3136 3136 3136 3135 3136 3136 3137 3138 3139 3139 3140 3140 3141 3142 3143 3143 3144 3145 3146 3147 3148 3149 3150 3151 3152 3153 3153 3154 3155 3156 3157 3157 3158 3159 3160 3162 3163 3164 3165 3165 3166 3167 3167 3168 3168 3169 3169 3170 3170 3170 3170 3170 3170 3170
3131 3133 3133 3134 3134 3134 3134 3134 3135 3135 3135 3135 3134 3135 3135 3136 3137 3137 3138 3139 3140 3140 3141 3142 3143 3144 3145 3146 3147 3147 3148 3149 3150 3151 3152 3153 3154 3154 3155 3156 3157 3158 3159 3160 3161 3162 3163 3164 3165 3165 3166 3167 3167 3168 3168 3169 3169 3169 3169 3169 3169 3169 3169
3130 3131 3132 3132 3132 3133 3133 3133 3133 3133 3134 3134 3134 3134 3134 3135 3136 3136 3137 3138 3139 3140 3141 3142 3143 3144 3145 3146 3146 3147 3148 3148 3149 3150 3151 3152 3153 3154 3155 3156 3157 3158 3159 3160 3161 3162 3163 3163 3164 3165 3165 3166 3167 3167 3168 3168 3168 3168 3168 3168 3168 3168 3168
3127 3128 3130 3131 3131 3131 3132 3132 3132 3132 3132 3133 3133 3133 3133 3134 3135 3136 3137 3137 3138 3139 3140 3141 3142 3143 3144 3145 3146 3147 3148 3148 3149 3150 3151 3152 3153 3154 3155 3156 3157 3158 3159 3160 3160 3161 3162 3163 3163 3164 3164 3165 3166 3166 3166 3167 3167 3167 3167 3167 3167 3167 3167
3122 3125 3127 3128 3128 3129 3130 3131 3131 3131 3132 3132 3132 3133 3133 3134 3135 3135 3136 3137 3138 3139 3140 3141 3142 3143 3144 3145 3146 3147 3147 3148 3149 3150 3151 3152 3152 3153 3154 3155 3156 3157 3158 3159 3160 3160 3161 3162 3162 3163 3163 3164 3164 3165 3165 3165 3165 3165 3165 3166 3166 3165 3165
3119 3121 3123 3124 3125 3127 3128 3129 3130 3130 3131 3131 3132 3132 3133 3133 3134 3135 3136 3137 3138 3139 3140 3141 3142 3143 3144 3145 3146 3146 3147 3148 3148 3149 3150 3151 3152 3153 3154 3155 3155 3156 3157 3158 3158 3159 3160 3160 3161 3162 3162 3162 3162 3163 3163 3163 3163 3164 3164 3164 3164 3164 3163
3118 3119 3121 3122 3124 3125 3127 3128 3129 3129 3130 3131 3131 3131 3132 3133 3134 3135 3136 3137 3138 3139 3140 3141 3142 3143 3143 3144 3145 3146 3147 3147 3148 3149 3150 3150 3151 3152 3153 3153 3154 3155 3156 3157 3157 3158 3158 3159 3159 3160 3160 3160 3161 3161 3161 3161 3161 3162 3162 3162 3162 3161 3161
3115 3117 3119 3121 3123 3124 3125 3127 3128 3128 3129 3130 3130 3131 3132 3132 3133 3134 3135 3136 3137 3138 3139 3140 3141 3142 3143 3144 3144 3145 3146 3146 3147 3148 3149 3150 3150 3151 3152 3152 3153 3154 3154 3155 3156 3156 3157 3158 3158 3158 3158 3159 3159 3159 3159 3159 3159 3159 3159 3159 3159 3159 3159
3113 3115 3117 3120 3121 3122 3124 3125 3127 3128 3128 3129 3130 3130 3131 3132 3132 3133 3134 3135 3136 3137 3138 3139 3140 3141 3142 3143 3143 3144 3145 3145 3146 3147 3148 3148 3149 3150 3150 3151 3152 3152 3153 3154 3154 3155 3155 3156 3156 3156 3157 3157 3157 3157 3157 3157 3157 3157 3157 3157 3157 3156 3156
3111 3113 3116 3118 3119 3121 3122 3124 3125 3126 3127 3128 3129 3130 3130 3131 3132 3133 3133 3134 3135 3136 3136 3137 3138 3139 3140 3141 3141 3142 3143 3144 3145 3146 3146 3147 3148 3148 3149 3150 3150 3151 3151 3152 3152 3153 3153 3153 3153 3154 3154 3154 3154 3154 3154 3154 3154 3154 3154 3153 3153 3153 3153
3109 3111 3114 3116 3117 3119 3120 3122 3123 3124 3126 3127 3128 3129 3130 3130 3131 3132 3132 3133 3133 3134 3134 3135 3136 3137 3138 3138 3139 3140 3141 3142 3143 3144 3144 3145 3146 3146 3147 3148 3148 3149 3149 3150 3150 3150 3150 3150 3150 3150 3150 3150 3150 3150 3150 3150 3150 3150 3150 3150 3150 3150 3150
3108 3111 3113 3114 3116 3117 3118 3120 3121 3123 3124 3125 3126 3128 3129 3129 3130 3131 3131 3131 3132 3132 3133 3134 3135 3135 3136 3137 3138 3138 3139 3140 3141 3142 3142 3143 3144 3144 3145 3145 3146 3146 3147 3147 3147 3147 3147 3147 3147 3147 3147 3147 3147 3147 3146 3146 3146 3146 3146 3145 3145 3146 3146
3108 3110 3111 3112 3113 3115 3116 3118 3120 3121 3123 3124 3125 3126 3127 3128 3128 3129 3130 3130 3130 3131 3132 3132 3133 3133 3134 3135 3135 3136 3137 3138 3139 3139 3140 3140 3141 3141 3142 3142 3142 3143 3143 3143 3143 3143 3143 3143 3143 3143 3143 3143 3143 3143 3143 3142 3142 3142 3141 3141 3141 3141 3142
3107 3108 3110 3110 3111 3113 3114 3116 3117 3119 3121 3122 3123 3124 3125 3125 3126 3127 3128 3128 3129 3129 3130 3130 3131 3131 3132 3132 3133 3133 3134 3135 3135 3136 3137 3137 3137 3138 3138 3137 3138 3138 3139 3139 3139 3139 3139 3139 3138 3138 3138 3138 3138 3138 3138 3138 3138 3138 3137 3137 3136 3137 3137
3106 3108 3109 3109 3110 3111 3112 3113 3115 3116 3118 3119 3121 3122 3123 3123 3124 3125 3125 3126 3126 3127 3127 3128 3128 3128 3129 3129 3130 3130 3131 3131 3132 3133 3133 3134 3134 3134 3134 3134 3134 3134 3134 3135 3135 3135 3134 3134 3134 3134 3134 3134 3134 3134 3134 3134 3134 3133 3133 3132 3132 3132 3132
3105 3106 3108 3108 3108 3109 3110 3111 3112 3113 3114 3116 3117 3118 3119 3120 3121 3122 3122 3123 3123 3123 3124 3124 3125 3125 3126 3126 3127 3127 3128 3128 3129 3129 3130 3130 3130 3130 3130 3131 3131 3131 3131 3132 3132 3131 3130 3130 3129 3129 3130 3130 3129 3129 3130 3131 3130 3129 3128 3128 3127 3127 3127
3103 3104 3106 3106 3107 3108 3109 3110 3110 3109 3110 3112 3113 3115 3116 3117 3117 3118 3119 3120 3121 3121 3121 3121 3122 3122 3123 3123 3124 3124 3124 3124 3125 3125 3126 3126 3127 3127 3127 3127 3127 3127 3128 3128 3128 3128 3127 3126 3126 3126 3126 3125 3125 3125 3127 3127 3125 3124 3124 3123 3122 3122 3122
3101 3102 3103 3105 3106 3106 3108 3108 3108 3108 3108 3109 3109 3110 3112 3113 3114 3115 3116 3117 3118 3118 3119 3119 3119 3119 3119 3119 3120 3120 3120 3120 3120 3121 3121 3122 3122 3122 3123 3123 3123 3122 3122 3122 3123 3123 3123 3122 3122 3122 3121 3121 3120 3121 3122 3121 3119 3119 3119 3118 3117 3117 3117
3100 3101 3102 3103 3104 3104 3105 3106 3106 3106 3107 3107 3107 3107 3109 3110 3111 3112 3112 3113 3113 3114 3115 3115 3116 3115 3115 3115 3115 3115 3115 3115 3115 3115 3116 3116 3117 3117 3118 3118 3118 3117 3116 3116 3116 3116 3116 3116 3115 3115 3115 3115 3115 3115 3115 3115 3114 3114 3113 3113 3113 3112 3112
3099 3099 3100 3101 3101 3102 3102 3103 3103 3104 3104 3105 3105 3105 3106 3106 3107 3107 3108 3108 3109 3110 3110 3111 3111 3111 3111 3110 3110 3110 3110 3109 3109 3109 3109 3110 3110 3111 3111 3111 3111 3111 3110 3109 3109 3109 3109 3109 3108 3108 3108 3109 3109 3108 3108 3108 3108 3107 3107 3107 3107 3107 3106
3097 3097 3098 3098 3099 3099 3099 3100 3100 3101 3101 3101 3102 3102 3103 3103 3104 3104 3104 3104 3104 3104 3104 3104 3105 3105 3105 3105 3104 3104 3103 3102 3102 3101 3101 3102 3102 3103 3102 3103 3103 3104 3104 3103 3103 3102 3102 3102 3101 3101 3102 3102 3102 3102 3102 3102 3102 3101 3101 3101 3101 3100 3100
3094 3094 3095 3095 3096 3096 3097 3097 3097 3097 3098 3098 3099 3099 3099 3099 3100 3100 3100 3100 3100 3099 3099 3098 3098 3098 3098 3098 3098 3097 3097 3096 3095 3094 3093 3093 3093 3093 3093 3093 3094 3095 3095 3096 3096 3096 3096 3095 3095 3095 3095 3096 3095 3094 3094 3095 3096 3095 3095 3095 3095 3095 3095